Home   Weather   Schönebeck   Past weeks

Flag for Germany Past Weather in Schönebeck, Saxony-Anhalt, Germany — Yesterday and Last 2 Weeks

Now
52 °F

Clear.


Feels Like: 51 °F
Forecast: 53 / 69 °F
Wind: 5 mph from Southwest

Location: Leipzig-Schkeuditz

Current Time: Sep 26, 2016 at 5:48:18 AM

Latest Report: Sep 26, 2016 at 5:20 AM


Visibility: 10 mi

Pressure: 30.12 "Hg

Humidity: 88%

Dew Point: 48 °F

Location of SchönebeckLocation

Past Weather in Schönebeck — Graph

°F

Schönebeck Temperature Yesterday

Maximum temperature yesterday: 73 °F (at 1:50 PM)
Minimum temperature yesterday: 50 °F (at 6:50 AM)
Average temperature yesterday: 60 °F

High & Low Weather Summary for the Past Weeks

 TemperatureHumidityPressure
High90 °F (Sep 12, 2:50 PM)100% (Sep 16, 11:50 PM)30.33 "Hg (Sep 16, 11:50 PM)
Low48 °F (Sep 22, 6:50 AM)27% (Sep 12, 4:20 PM)29.86 "Hg (Sep 17, 3:50 AM)
Average64 °F69%30.06 "Hg
* Reported Sep 11 4:20 AM — Sep 26 4:50 AM, Schönebeck, Weather by CustomWeather, © 2016

Note: Actual official high and low records may vary slightly from our data, if they occured in-between our weather recording intervals... More about our weather records

Advertising

Schönebeck Weather History for the Previous 24 Hours

Scroll right to see more
 ConditionsComfort  
Time TempWeatherWind HumidityBarometerVisibility
4:50 AM
Mon, Sep 26
52 °FPassing clouds.6 mph94%30.12 "HgN/A
4:20 AM52 °FClear.8 mph88%30.09 "Hg10 mi
3:50 AM50 °FClear.7 mph94%30.12 "Hg10 mi
3:20 AM52 °FClear.6 mph94%30.12 "Hg10 mi
2:50 AM54 °FClear.7 mph88%30.12 "Hg10 mi
2:20 AM54 °FClear.8 mph88%30.12 "Hg10 mi
1:50 AM54 °FClear.8 mph88%30.12 "Hg10 mi
1:20 AM54 °FClear.7 mph88%30.12 "Hg10 mi
12:50 AM52 °FClear.8 mph88%30.12 "Hg10 mi
12:20 AM54 °FClear.7 mph82%30.12 "Hg10 mi
11:50 PM
Sun, Sep 25
55 °FClear.7 mph77%30.12 "Hg10 mi
11:20 PM55 °FClear.7 mph77%30.12 "Hg10 mi
10:50 PM57 °FClear.8 mph72%30.09 "Hg10 mi
10:20 PM57 °FClear.8 mph77%30.09 "Hg10 mi
9:50 PM59 °FClear.8 mph72%30.09 "Hg10 mi
9:20 PM59 °FClear.7 mph72%30.09 "Hg10 mi
8:50 PM61 °FClear.7 mph68%30.09 "Hg10 mi
8:20 PM61 °FClear.5 mph63%30.09 "Hg10 mi
7:50 PM63 °FClear.6 mph59%30.09 "Hg10 mi
7:20 PM64 °FClear.6 mph56%30.09 "Hg10 mi
6:50 PM66 °FSunny.5 mph52%30.09 "Hg10 mi
6:20 PM68 °FSunny.3 mph49%30.09 "Hg10 mi
5:50 PM70 °FPassing clouds.5 mph43%30.09 "HgN/A
5:20 PM72 °FSunny.7 mph38%30.09 "Hg10 mi
4:50 PM73 °FPassing clouds.7 mph36%30.09 "HgN/A
4:20 PM73 °FPassing clouds.8 mph38%30.09 "HgN/A
3:50 PM73 °FPassing clouds.7 mph38%30.09 "HgN/A
3:20 PM73 °FPassing clouds.7 mph41%30.09 "HgN/A
2:50 PM73 °FSunny.10 mph38%30.12 "Hg10 mi
2:20 PM72 °FPassing clouds.8 mph44%30.12 "HgN/A
1:50 PM73 °FPassing clouds.10 mph38%30.12 "HgN/A
1:20 PM72 °FPassing clouds.8 mph47%30.15 "HgN/A
12:50 PM70 °FPassing clouds.8 mph46%30.15 "HgN/A
12:20 PM70 °FSunny.9 mph50%30.15 "Hg10 mi
11:50 AM66 °FPassing clouds.7 mph56%30.15 "HgN/A
11:20 AM66 °FSunny.7 mph60%30.18 "Hg10 mi
10:50 AM63 °FSunny.6 mph68%30.18 "Hg10 mi
10:20 AM59 °FSunny.8 mph77%30.18 "Hg10 mi
9:50 AM57 °FSunny.9 mph82%30.18 "Hg10 mi
9:20 AM55 °FSunny.9 mph88%30.18 "Hg10 mi
8:50 AM54 °FSunny.7 mph94%30.18 "Hg10 mi
8:20 AM54 °FSunny.7 mph88%30.18 "Hg10 mi
7:50 AM52 °FSunny.8 mph94%30.18 "Hg10 mi
7:20 AM52 °FClear.8 mph94%30.18 "Hg6 mi
6:50 AM50 °FClear.9 mph94%30.18 "Hg10 mi
6:20 AM52 °FClear.8 mph94%30.18 "Hg10 mi
5:50 AM52 °FClear.9 mph94%30.18 "Hg10 mi
5:20 AM52 °FClear.9 mph94%30.18 "Hg10 mi
Weather by CustomWeather, © 2016

See weather overviewHow to use our weather pages